UO-11
1 14781U 84021B 15245.92515217 .00000300 00000-0 43841-4 0 9992
2 14781 097.7940 301.0640 0008846 167.7899 192.3531 14.82492620672542
AO-16
1 20439U 90005D 15245.80629420 .00000059 00000-0 37727-4 0 9994
2 20439 098.5433 180.8741 0009771 294.8245 118.6312 14.32566196337850
LO-19
1 20442U 90005G 15245.79125924 .00000053 00000-0 35539-4 0 9999
2 20442 098.5141 180.1811 0010602 280.8038 079.1952 14.32756923338054
AO-27
1 22825U 93061C 15245.87903440 .00000040 00000-0 32934-4 0 9999
2 22825 098.7154 196.0365 0009596 082.0384 347.3660 14.29900165143766
IO-26
1 22826U 93061D 15245.83494123 .00000048 00000-0 35878-4 0 9997
2 22826 098.7097 196.1502 0010108 074.7670 285.4629 14.30219087144186
GO-32
1 25397U 98043D 15245.84029524 .00000009 00000-0 22401-4 0 9993
2 25397 098.5263 193.8743 0002443 094.0652 319.1588 14.23558275890616
NO-44
1 26931U 01043C 15245.62806858 .00000025 00000-0 41380-4 0 9996
2 26931 067.0532 337.3297 0006013 274.5406 085.5008 14.30338992726809
SO-50
1 27607U 02058C 15245.61113717 .00000251 00000-0 56437-4 0 9998
2 27607 064.5562 322.3710 0083182 273.4518 085.7072 14.74829257682578
CO-55
1 27844U 03031E 15245.59200346 .00000103 00000-0 66558-4 0 9996
2 27844 098.6965 253.0186 0010912 078.7074 281.5329 14.21840065631394
CO-57
1 27848U 03031J 15245.58561692 .00000079 00000-0 55844-4 0 9991
2 27848 098.7062 252.9598 0010829 085.5681 042.2513 14.21481959631300
AO-51
1 28375U 04025K 15245.83478347 .00000083 00000-0 37243-4 0 9991
2 28375 098.2964 184.0663 0084007 094.9739 266.1047 14.41690359587685
CP3
1 31129U 07012N 15245.86245815 .00000482 00000-0 11298-3 0 9990
2 31129 097.9888 208.2934 0097891 071.9497 346.7437 14.55921412444422
CO-65
1 32785U 08021C 15245.84614023 .00000650 00000-0 78291-4 0 9993
2 32785 097.6421 286.5257 0013825 164.0898 313.1509 14.87037150397698
PRISM
1 33493U 09002B 15245.87904955 .00002363 00000-0 22901-3 0 9998
2 33493 098.2462 087.0737 0017401 075.7309 284.5786 14.93651239358178
SOHLA-1
1 33496U 09002E 15245.91034970 .00000189 00000-0 38770-4 0 9993
2 33496 098.2225 014.4993 0005024 278.8789 193.6744 14.71417113354168
TISAT-1
1 36799U 10035E 15245.85664984 .00001210 00000-0 13535-3 0 9994
2 36799 098.0192 347.1628 0011843 316.9691 165.2981 14.88792524278513
STUDSAT
1 36801U 10035G 15245.94265372 .00011107 00000-0 60867-3 0 9992
2 36801 098.0694 009.8667 0005270 228.1393 131.9388 15.14380902279604
ALMASAT-1
1 38078U 12006B 15245.89468323 .00039374 34785-5 65007-3 0 9994
2 38078 069.4531 043.9898 0462157 149.9774 212.8803 14.82883964186544
CUBEBUG-1
1 39153U 13018D 15245.73517883 .00000567 00000-0 83060-4 0 9992
2 39153 098.0149 329.8742 0017335 007.5572 352.5897 14.79376459126940
ESTCUBE-1
1 39161U 13021C 15245.86989240 .00000684 00000-0 11875-3 0 9993
2 39161 098.0702 328.1119 0011019 070.7177 289.5207 14.71282870124666
DUCHIFAT-1
1 40021U 14033M 15245.69898689 .00001136 00000-0 12888-3 0 9999
2 40021 097.9457 146.5155 0012155 294.2271 065.7675 14.88302206065335
NANOSATCBR1
1 40024U 14033Q 15245.71176726 .00000980 00000-0 11323-3 0 9995
2 40024 097.9440 146.2469 0011333 293.5175 066.4850 14.87851463065322
DTUSAT-2
1 40030U 14033W 15245.69945696 .00000776 00000-0 92969-4 0 9998
2 40030 097.9424 145.7316 0010848 286.7738 073.2287 14.86959927065294
ANTELSAT
1 40034U 14033AA 15245.69598256 .00000848 00000-0 13694-3 0 9995
2 40034 097.9344 136.0017 0058655 230.8654 128.7331 14.72869564064708
MET-2/21
1 22782U 93055A 15245.95505214 .00000102 00000-0 78467-4 0 9990
2 22782 082.5515 181.9608 0023776 101.8579 327.7160 13.83775612111088
OKEAN-4
1 23317U 94066A 15245.90450975 .00000543 00000-0 57918-4 0 9993
2 23317 082.5397 012.4156 0021552 073.7506 048.1628 14.86801783128853
NOAA-14
1 23455U 94089A 15245.89029963 .00000009 00000-0 27543-4 0 9996
2 23455 098.7487 325.7316 0008866 213.4693 210.2496 14.14051254066268
NOAA-15
1 25338U 98030A 15245.91973946 .00000052 00000-0 41002-4 0 9994
2 25338 098.7764 244.6219 0009671 307.2768 052.7529 14.25657153899654
RESURS
1 25394U 98043A 15245.89925169 -.00000033 00000-0 39377-5 0 9994
2 25394 098.4726 198.2073 0002462 065.7436 358.7234 14.24457423891349
FENGYUN1
1 25730U 99025A 15245.89848609 .00000739 00000-0 41501-3 0 9994
2 25730 098.9477 210.7565 0019887 287.9475 129.6523 14.13603394839994
OKEAN-0
1 25860U 99039A 15245.93487789 .00000262 00000-0 45445-4 0 9999
2 25860 098.1029 214.1521 0001910 085.2483 337.2232 14.76122154867342
NOAA-16
1 26536U 00055A 15245.91026153 .00000015 00000-0 32156-4 0 9993
2 26536 098.9359 311.7891 0010745 018.7475 341.4091 14.13106956067131
NOAA-17
1 27453U 02032A 15245.95395790 .00000011 00000-0 22168-4 0 9997
2 27453 098.3473 228.1277 0010929 320.1546 039.8831 14.24897392685727
NOAA-18
1 28654U 05018A 15245.92608380 .00000063 00000-0 59556-4 0 9995
2 28654 099.1892 240.4846 0015340 101.7652 258.5240 14.12230171529956
NOAA-19
1 33591U 09005A 15245.83198408 .00000096 00000-0 77164-4 0 9997
2 33591 098.9964 195.9228 0013360 315.1335 044.8755 14.11972341338187
HUBBLE
1 20580U 90037B 15245.55984366 .00001144 00000-0 61834-4 0 9993
2 20580 028.4711 003.8225 0002883 352.3917 071.3635 15.07658504191413
ISS
1 25544U 98067A 15244.94032382 -.00000699 00000-0 -30909-5 0 9999
2 25544 51.6442 60.7943 0002397 169.9165 283.1695 15.55269059959982
CO-58
1 28895U 05043F 15245.75934665 .00000314 00000-0 69940-4 0 9996
2 28895 097.8224 069.4870 0018233 054.3685 305.9213 14.62882458524932
FALCON
1 30776U 07006E 15245.45468400 .00004279 00000-0 16773-3 0 9993
2 30776 35.4267 236.4082 0002486 249.1821 245.3419 15.25309186468101
MAST
1 31126U 07012K 15245.85427912 .00000334 00000-0 81443-4 0 9992
2 31126 097.9690 210.3968 0092084 054.1276 000.5134 14.56128015444796
CAPE1
1 31130U 07012P 15245.86259788 .00000438 00000-0 10412-3 0 9994
2 31130 097.9905 207.7426 0098601 073.9603 287.2427 14.55588650444190
COMPASS
1 32787U 08021E 15245.86008612 .00001197 00000-0 12636-3 0 9995
2 32787 097.6444 291.1301 0013922 149.5748 210.6281 14.91019933398038
AAUSAT2
1 32788U 08021F 15245.93308318 .00001369 00000-0 13998-3 0 9993
2 32788 097.6453 292.8479 0013427 145.7238 214.4851 14.92093915398099
DO-64
1 32789U 08021G 15245.96316178 .00002505 00000-0 20250-3 0 9992
2 32789 097.6674 305.0193 0013601 150.3888 336.4451 15.00643799398634
CO-66
1 32791U 08021J 15245.64537259 .00000905 00000-0 10166-3 0 9992
2 32791 097.6441 288.5324 0014491 157.2640 202.9222 14.89005267397764
RS-30
1 32953U 08025A 15245.90444911 .00000010 00000-0 -13620-7 0 9997
2 32953 082.5036 285.9150 0017460 271.1249 088.7846 12.43063219330268
METEOR-M
1 35865U 09049A 15245.96987499 .00000024 00000-0 29779-4 0 9991
2 35865 098.4942 283.5027 0001432 231.3523 189.8582 14.22046737309112
RS-38
1 35869U 09049E 15245.90630954 .00000034 00000-0 34253-4 0 9994
2 35869 098.4859 283.0337 0003623 246.4856 113.5937 14.22307827309301
JUGNU
1 37839U 11058B 15244.03591492 .00000354 00000-0 46741-4 0 9992
2 37839 19.9615 102.6890 0019134 162.3160 355.3102 14.12485115200953
SRMSAT
1 37841U 11058D 15245.07500860 .00000342 00000-0 43323-4 0 9999
2 37841 19.9719 124.6595 0011953 97.3796 53.4163 14.10494380200821
RAX-2
1 37853U 11061D 15245.91714228 .00002053 00000-0 13103-3 0 9997
2 37853 101.6971 135.1952 0194659 208.3928 282.7094 14.96766795208243
AUBIESAT
1 37854U 11061E 15245.61960186 .00001867 00000-0 11665-3 0 9994
2 37854 101.6998 138.6971 0185350 203.0889 156.1911 14.98953107208360
